Starlink 34091

operational
NORAD ID: 63808 Int'l Des: 2025-092 Owner: SPXS Country: US Constellation: starlink
LEOCIRCULAR

关于 Starlink 34091

正在加载描述...

实时位置

正在加载3D地球...

即将过境

高度历史

Altitude vs Time

uPlot chart will show altitude changes over time

两行轨道根数

1 63808U 25092E 25350.19347594 .00022340 00000-0 81762-3 0 9998
2 63808 43.0016 284.2058 0000938 281.4477 78.6270 15.27630426 35894
Epoch: Dec 16, 2025 • Age: 24 hours

当前状态

高度 489.1 km
速度 7.62 km/s
星下点 -26.17°S, 33.15°W
发射日期 May 4, 2025
运行时间 0.6 years
类型 internet

技术详情

分类 Payload
质量 575.00 kg
干质量 530.00 kg
总质量 575.00 kg
长度 0.30 m
直径 4.10 m
跨度 29.00 m
形状 Box + pan
制造商 SPXS
平台类型 Starlink V2MO
阶段状态 In Orbit
所有者/国家 SPXS/US

大型星座

Loading constellations...